Warning: Javascript must be enabled to use all the features on this page!


Page Loading - Please Wait...

Click to hideNews Bulletins

Peak Streamflow for the Nation

USGS 01376500 SAW MILL RIVER AT YONKERS NY

Westchester County, New York
Hydrologic Unit Code 02030101
Latitude  40°56'11", Longitude  73°53'10" NAD83
Drainage area 25.6  square miles
Gage datum 87.32 feet above NAVD88
Output formats
Table
Graph
Tab-separated file
peakfq (watstore) format
Reselect output format
Water
Year
Date Gage
Height
(feet)
Stream-
flow
(cfs)
1945 1945-06-21 3.053 3305,C
1946 1946-05-26 3.903 5775,C
1947 1947-04-05 2.993 3195,C
1948 1948-08-12 3.023 3325,C
1949 1949-01-01 2.983 3225,C
1950 1950-07-10 2.723 2655,C
1951 1951-03-31 4.213 5785,C
1952 1952-06-01 3.693 4605,C
1953 1953-03-14 4.113 5555,C
1954 1954-09-11 3.353 4125,C
1955 1955-08-13 3.263 3905,9,C
1956 1955-10-16 5.343 8905,C
1957 1956-11-01 3.343 4055,C
1958 1958-03-01 3.663 4865,C
1959 1959-03-07   3302,5,C
1960 1960-09-12   3401,5,C
1961 1961-07-20 3.173 3745,C
1962 1962-03-13 4.223 6215,C
1963 1963-03-07 3.223 3815,C
1964 1963-11-29 3.383 3715,C
1965 1965-02-08 3.553 3605,C
1966 1966-09-21 4.033 4505,C
1967 1967-03-07 3.473 2855,C
1968 1968-05-30 4.653 4815,C
1969 1969-06-15 4.003 3725,C
1970 1970-02-11 4.343 4165,C
1971 1971-08-28 4.083 4845,C
1972 1972-06-20 5.553 6365,C
1973 1973-02-03 5.343 6335,C
1975 1975-09-27 7.263 1,0205,C
1976 1976-08-10 4.773 5195,C
1977 1977-02-25 5.642,3 6855,C
1978 1977-11-09 6.673,6 6785,C
1979 1979-01-21 5.293 9205,C
1980 1980-04-10 6.053 9795,C
1981 1981-09-08 3.283 4775,C
1982 1982-01-04 3.183 4525,C
1983 1983-04-10 4.886 6155,C
1984 1984-07-07 7.84 1,4505,C
1985 1985-07-26 5.84 8235,C
1986 1986-08-17 6.68 1,0805,C
1987 1987-04-05 5.74 8165,C
1988 1988-05-18 4.14 4145,C
1989 1989-05-17 5.55 7665,C
1993 1993-09-27 4.17 3915,C
1994 1994-01-29 5.24 6725,C
1995 1995-07-26 4.80 5495,C
1999 1999-09-16 7.79 1,4305,7,9,C
2003 2003-07-23 5.89 8585,C
2004 2004-09-18 6.80 1,1205,C
2005 2005-06-29 6.52 1,0405,C
2006 2006-07-18 6.24 9565,C
2007 2007-04-16 9.00 1,8405,C
2008 2008-02-13 5.80 8335,C
2009 2008-12-12 5.70 8065,C
2010 2010-03-30 7.43 1,0605,C
2011 2011-08-28 9.61 1,7405,9,C
2012 2011-12-08 6.01 6385,C
2013 2013-06-08 7.19 8865,C
2014 2014-05-01 6.69 7505,C
2015 2014-12-09 5.72 5165,C
2016 2016-02-16 5.97 5725,C
2017 2017-05-05 5.93 5635,C
2018 2018-09-06 7.10 8615,C
2019 2018-10-03 6.42 6805,C
2020 2019-10-27 5.27 3955,C
?
  Peak Gage-Height Qualification Codes.
?
  Peak Streamflow Qualification Codes.